0 HST 1 20580U 90037B 25257.06823216 .00005475 00000-0 19691-3 0 9993 2 20580 28.4676 162.0431 0002335 337.8451 22.2043 15.26304369746279 0 ISS (ZARYA) 1 25544U 98067A 25257.15843506 .00007863 00000-0 14416-3 0 9996 2 25544 51.6331 226.0896 0004303 337.3187 22.7612 15.50283896528963 0 CXO 1 25867U 99040B 25259.35019206 .00000941 00000-0 00000-0 0 9993 2 25867 51.3649 125.8051 8285650 310.4265 0.3581 0.37804868 16283